This demonstration page uses our WeatherBlox Daily Observations layout. Learn more.

Hourly Observations for July 28, 2017

Temp ( °F °C ) Dew Point ( °F °C ) Humidity (%) Winds ( mph kmh ) Pressure ( in mb ) Visibility ( mi km ) Precip ( " mm )
12:54 am 00:54 Clear 67 19.4 64 17.8 91 91 N 3 6 30 1016 10 16.0934 0 0
1:54 am 01:54 Clear 66 18.9 63 17.2 90 90 N 5 7 29.99 1016 10 16.0934 0 0
2:54 am 02:54 Clear 66 18.9 64 17.8 93 93 N 6 9 29.99 1016 10 16.0934 0 0
3:54 am 03:54 Clear 67 19.4 63 17.2 87 87 N 3 6 30 1016 10 16.0934 0 0
4:54 am 04:54 Clear 64 17.8 61 16.1 90 90 NNW 3 6 30.01 1016 10 16.0934 0 0
5:54 am 05:54 Clear 63 17.2 62 16.7 97 97 N 6 9 30.01 1016 10 16.0934 0 0
6:54 am 06:54 Sunny 64 17.8 62 16.7 93 93 N 3 6 30.03 1017 10 16.0934 0 0
7:54 am 07:54 Sunny 68 20 64 17.8 87 87 N 5 7 30.03 1017 10 16.0934 0 0
8:54 am 08:54 Sunny 72 22.2 65 18.3 79 79 NE 7 11 30.04 1017 10 16.0934 0 0
9:54 am 09:54 Sunny 76 24.4 64 17.8 67 67 ENE 7 11 30.04 1017 10 16.0934 0 0
10:54 am 10:54 Sunny 79 26.1 64 17.8 60 60 E 9 15 30.04 1017 10 16.0934 0 0
11:54 am 11:54 Sunny 79 26.1 62 16.7 56 56 ESE 7 11 30.04 1017 10 16.0934 0 0
12:54 pm 12:54 Sunny 79 26.1 61 16.1 54 54 ENE 9 15 30.04 1017 10 16.0934 0 0
1:54 pm 13:54 Sunny 81 27.2 62 16.7 53 53 ENE 10 17 30.03 1017 10 16.0934 0 0
2:54 pm 14:54 Mostly Cloudy 81 27.2 62 16.7 53 53 NE 10 17 30.03 1017 10 16.0934 0 0
3:54 pm 15:54 Mostly Sunny 82 27.8 63 17.2 53 53 ENE 9 15 30.02 1017 10 16.0934 0 0
4:54 pm 16:54 Sunny 83 28.3 64 17.8 53 53 ENE 9 15 30.01 1016 10 16.0934 0 0
5:54 pm 17:54 Sunny 82 27.8 64 17.8 55 55 ESE 8 13 30 1016 10 16.0934 0 0
6:54 pm 18:54 Sunny 81 27.2 63 17.2 54 54 E 8 13 29.99 1016 10 16.0934 0 0
7:54 pm 19:54 Sunny 79 26.1 65 18.3 62 62 ENE 7 11 29.99 1016 10 16.0934 0 0
8:54 pm 20:54 Clear 75 23.9 65 18.3 71 71 ENE 6 9 30 1016 10 16.0934 0 0
9:54 pm 21:54 Clear 76 24.4 65 18.3 69 69 E 5 7 30.01 1016 10 16.0934 0 0
10:54 pm 22:54 Clear 72 22.2 65 18.3 79 79 Calm 30.02 1017 10 16.0934 0 0
11:54 pm 23:54 Clear 68 20 65 18.3 90 90 N 6 9 30.04 1017 10 16.0934 0 0

Powered by AerisWeather